Station CLSM4 - St. Clair Shores, MI Image indicating link to RSS feed of recent meteorological observations for station CLSM4


Conditions at CLSM4 as of
(11:00 pm EDT on 05/26/2024)
0300 GMT on 05/27/2024:
     

Click on the graph icon in the table below to see a time series plot of the last five days of that observation.

5-day plot - Wind Direction Wind Direction (WDIR):NNW ( 340 deg true )
5-day plot - Wind Speed Wind Speed (WSPD):1.5 m/s
5-day plot - Wind Gust Wind Gust (GST):6.2 m/s
5-day plot - Atmospheric Pressure Atmospheric Pressure (PRES):1003.4 mb
5-day plot - Pressure Tendency Pressure Tendency (PTDY): +0.7 mb ( Rising )
5-day plot - Air Temperature Air Temperature (ATMP): 17.0 °C
5-day plot - Wind Speed at 10 Meters Wind Speed at 10 meters (WSPD10M): 2 m/s
5-day plot - Wind Speed at 20 Meters Wind Speed at 20 meters (WSPD20M): 2 m/s
5-day plot -  Wind Speed, Wind Gust and Atmospheric Pressure Combined plot of Wind Speed, Gust, and Air Pressure
Previous observations
TIME
(EDT)
5-day plot - Wind Direction
WDIR
 
5-day plot - Wind Speed
WSPD
m/s
5-day plot - Wind Gust
GST
m/s
5-day plot - Wave Height
WVHT
m
5-day plot - Dominant Wave Period
DPD
sec
5-day plot - Average Wave Period
APD
sec
5-day plot - Mean Wave Direction
MWD
 
5-day plot - Atmospheric Pressure
PRES
mb
5-day plot - Pressure Tendency
PTDY
mb
5-day plot - Air Temperature
ATMP
°C
5-day plot - Water Temperature
WTMP
°C
5-day plot - Dew Point
DEWP
°C
5-day plot - Salinity
SAL
psu
5-day plot - Visibility
VIS
km
5-day plot - Tide (above MLLW)
TIDE
m
2024-05-26 10:50 pm NW 2.1 5.1----1003.0- 16.9-----
2024-05-26 10:40 pm N 4.6 8.2----1003.0- 17.1-----
2024-05-26 10:30 pmNNE 6.7 11.3----1003.0- 17.0-----
2024-05-26 10:21 pmENE 9.8-----1001.7- 17.1-----
2024-05-26 10:20 pmENE 9.8 13.9----1001.4- 17.1-----
2024-05-26 10:10 pmENE 11.8 16.5----1001.0- 17.0-----
2024-05-26 10:00 pm NE 14.9 16.0----1000.0 -3.4 17.1-----
2024-05-26 09:50 pm NE 9.3 10.3----1002.4- 16.9-----
2024-05-26 09:40 pmNNE 8.2 8.8----1003.4- 16.8-----
2024-05-26 09:30 pm N 5.7 6.7----1004.1- 16.9-----
2024-05-26 09:21 pm E 1.5 11.3----1004.7- 16.1-----
2024-05-26 09:20 pm E 1.5 5.7----1004.7- 16.1-----
2024-05-26 09:10 pm NW 2.1 5.1----1005.1- 16.1-----
2024-05-26 09:00 pm NW 1.5 6.2----1005.4 +0.7 16.5-----
2024-05-26 08:50 pmWSW 0.5 6.2----1005.4- 16.9-----
2024-05-26 08:40 pm W 4.1 10.3----1005.1- 17.0-----
2024-05-26 08:30 pm W 8.8 11.3----1004.7- 17.9-----
2024-05-26 08:21 pm SE 4.6-----1004.7- 19.6-----
2024-05-26 08:20 pm SE 4.6-----1004.4- 19.6-----
2024-05-26 08:10 pm E 6.7-----1002.7- 19.6-----
2024-05-26 08:00 pmENE 4.6 6.2----1002.7 -3.4 18.9-----
2024-05-26 07:50 pmENE 3.1 17.5----1002.7- 17.9-----
2024-05-26 07:40 pm E 15.4 18.5----1002.4- 19.3-----
2024-05-26 07:30 pm E 10.3-----1002.7- 19.7-----
2024-05-26 07:22 pmENE 7.2 25.2----1003.0- 20.2-----
2024-05-26 07:20 pmENE 5.1 7.2----1003.0- 20.2-----
2024-05-26 07:10 pm E 7.2 14.9----1003.0- 20.2-----
2024-05-26 07:00 pm E 10.3 12.9----1003.4 -3.4 20.4-----
2024-05-26 06:50 pm E 12.9 16.5----1003.4- 20.5-----
2024-05-26 06:48 pm E 10.3 13.4----1003.4- 20.6-----
2024-05-26 06:40 pm E 8.8 10.8----1003.7- 20.6-----
2024-05-26 06:30 pm E 9.3 11.3----1003.7- 20.7-----
2024-05-26 06:20 pm E 9.3 11.3----1004.4- 20.8-----
2024-05-26 06:10 pm E 9.3 10.8----1004.4- 20.7-----
2024-05-26 06:00 pm E 8.2 10.3----1004.7 -3.4 20.7-----
2024-05-26 05:50 pm E 9.3 10.3----1004.7- 20.8-----
2024-05-26 05:40 pm E 8.2 9.8----1005.1- 20.8-----
2024-05-26 05:30 pm E 7.7 9.3----1005.4- 20.8-----
2024-05-26 05:20 pm E 7.7 9.8----1005.8- 20.8-----
2024-05-26 05:10 pm E 8.2 9.3----1005.8- 20.8-----
2024-05-26 05:00 pm E 6.7 8.8----1006.1 -4.1 20.6-----
2024-05-26 04:50 pm E 7.7 9.8----1006.1- 20.9-----
2024-05-26 04:40 pm E 7.7 8.8----1006.1- 20.9-----
2024-05-26 04:30 pm E 7.2 8.8----1006.4- 20.8-----
2024-05-26 04:20 pm E 7.2 8.8----1006.4- 20.9-----
2024-05-26 04:10 pm E 7.7 9.8----1006.4- 21.1-----
2024-05-26 04:00 pm E 7.7 9.3----1006.8 -4.7 20.9-----
2024-05-26 03:50 pm E 7.7 9.8----1006.8- 20.9-----
2024-05-26 03:40 pm E 7.2 10.3----1007.1- 20.7-----
2024-05-26 03:30 pm E 7.7 9.8----1007.1- 21.0-----
2024-05-26 03:20 pm E 8.2 10.3----1007.5- 21.2-----
2024-05-26 03:10 pm E 8.2 9.8----1007.8- 21.1-----
2024-05-26 03:00 pm E 7.7 9.3----1008.1 -4.1 21.0-----
2024-05-26 02:50 pm E 7.7 9.3----1008.8- 21.1-----
2024-05-26 02:40 pm E 7.2 8.2----1008.8- 21.0-----
2024-05-26 02:30 pmESE 6.7 7.2----1009.1- 20.9-----
2024-05-26 02:20 pmESE 5.7 7.2----1009.5- 21.0-----
2024-05-26 02:10 pmESE 5.7 6.7----1009.8- 21.0-----
2024-05-26 02:00 pmESE 5.7 6.7----1010.2 -2.3 21.0-----
2024-05-26 01:50 pm E 5.7 6.7----1010.2- 20.8-----
2024-05-26 01:40 pm E 4.6 6.2----1010.5- 20.5-----
2024-05-26 01:30 pm E 4.6 6.2----1010.5- 20.7-----
2024-05-26 01:20 pm E 4.1 5.7----1010.8- 20.5-----
2024-05-26 01:10 pm E 3.6 4.6----1011.2- 20.6-----
2024-05-26 01:00 pm E 4.1 5.7----1011.5 -1.7 20.7-----
2024-05-26 12:50 pm E 4.6 5.7----1011.2- 20.7-----
2024-05-26 12:40 pm E 4.6 5.7----1011.5- 20.6-----
2024-05-26 12:30 pm E 4.6 5.7----1011.5- 20.5-----
2024-05-26 12:20 pm E 3.6 4.6----1011.9- 20.4-----
2024-05-26 12:10 pmENE 2.1 3.6----1011.9- 20.3-----
2024-05-26 12:00 pm E 3.1 4.1----1012.2 -1.7 20.2-----
2024-05-26 11:50 am E 2.6 4.1----1012.5- 20.2-----
2024-05-26 11:40 am E 2.6 3.1----1012.5- 20.0-----
2024-05-26 11:30 am E 2.6 4.1----1012.5- 19.8-----
2024-05-26 11:20 am E 3.1 4.1----1012.5- 19.6-----
2024-05-26 11:10 am E 2.6 3.6----1012.5- 19.4-----
2024-05-26 11:00 am E 3.1 3.6----1012.5 -0.7 19.4-----
2024-05-26 10:50 am E 1.5 3.1----1012.5- 19.1-----
2024-05-26 10:40 am E 2.6 4.1----1012.5- 18.8-----
2024-05-26 10:30 am E 3.1 4.1----1012.5- 18.5-----
2024-05-26 10:20 am E 3.6 4.6----1012.5- 18.1-----
2024-05-26 10:10 amENE 3.6 4.6----1012.5- 18.0-----
2024-05-26 10:00 am NE 3.1 3.6----1013.2 +0.0 18.0-----
2024-05-26 09:50 am NE 2.6 3.1----1013.5- 17.9-----
2024-05-26 09:40 am NE 2.1 2.6----1013.5- 17.9-----
2024-05-26 09:30 am E 2.1 3.1----1013.5- 17.7-----
2024-05-26 09:20 amENE 2.6 3.1----1013.5- 17.7-----
2024-05-26 09:10 amENE 1.5 2.6----1013.9- 17.7-----
2024-05-26 09:00 amENE 1.5 8.8----1013.9- 17.3-----
2024-05-26 08:50 am NE 2.1 2.6----1013.5- 17.0-----
2024-05-26 08:40 am NE 2.1 3.1----1013.2- 16.8-----
2024-05-26 08:30 am NE 2.6 3.6----1012.9- 16.7-----
2024-05-26 08:20 am NE 3.1 4.1----1013.2- 16.6-----
2024-05-26 08:10 amENE 3.1 4.1----1013.2- 16.5-----
2024-05-26 08:00 amENE 3.6 4.1----1013.2 +0.3 16.7-----
2024-05-26 07:50 am NE 3.6 4.1----1013.2- 16.7-----
2024-05-26 07:40 am NE 3.6 4.6----1013.2- 16.7-----
2024-05-26 07:30 am NE 3.1 4.6----1013.2- 16.5-----
2024-05-26 07:20 am NE 3.6 4.6----1013.5- 16.3-----
2024-05-26 07:10 am NE 3.6 4.6----1013.2- 16.5-----
2024-05-26 07:00 amENE 2.6 3.6----1013.2 -0.7 16.5-----
2024-05-26 06:50 amENE 3.1 4.1----1013.2- 16.1-----
2024-05-26 06:40 amENE 3.1 4.1----1012.9- 16.0-----
2024-05-26 06:30 amENE 3.6 4.1----1012.9- 16.1-----
2024-05-26 06:20 am NE 2.6 3.1----1012.9- 15.8-----
2024-05-26 06:10 am NE 2.6 3.6----1012.9- 15.7-----
2024-05-26 06:00 amENE 3.1 4.1----1013.2 -0.3 15.7-----
2024-05-26 05:50 am NE 3.1 4.6----1013.2- 15.8-----
2024-05-26 05:40 am NE 3.1 4.6----1013.2- 15.7-----
2024-05-26 05:30 am NE 4.1 5.1----1013.2- 15.8-----
2024-05-26 05:20 am NE 4.6 5.7----1012.9- 15.9-----
2024-05-26 05:10 am NE 4.6 6.2----1013.2- 16.2-----
2024-05-26 05:00 am NE 5.7 6.2----1012.9 +0.0 16.5-----
2024-05-26 04:50 amNNE 5.1 6.2----1013.2- 16.7-----
2024-05-26 04:40 amNNE 5.1 5.7----1013.5- 16.6-----
2024-05-26 04:30 amNNE 5.1 6.2----1013.5- 16.7-----
2024-05-26 04:20 amNNE 4.1 5.7----1013.5- 16.7-----
2024-05-26 04:10 am N 5.7 6.2----1013.5- 16.9-----
2024-05-26 04:00 amNNE 4.6 5.1----1013.9 +1.0 17.1-----
2024-05-26 03:50 amNNE 4.6 6.2----1013.9- 17.0-----
2024-05-26 03:40 amNNE 4.6 6.2----1013.9- 17.0-----
2024-05-26 03:30 amNNE 4.6 6.2----1013.5- 17.2-----
2024-05-26 03:20 amNNE 5.7 6.7----1013.5- 17.3-----
2024-05-26 03:10 amNNE 5.1 6.2----1013.5- 17.5-----
2024-05-26 03:00 amNNE 5.7 6.7----1013.5 +0.3 17.7-----
2024-05-26 02:50 amNNE 5.7 6.2----1013.5- 17.8-----
2024-05-26 02:40 amNNE 5.7 6.2----1013.5- 18.1-----
2024-05-26 02:30 amNNE 5.1 6.2----1013.5- 18.6-----
2024-05-26 02:20 am N 3.1 4.1----1013.2- 18.0-----
2024-05-26 02:10 amNNW 1.0 2.1----1013.5- 17.9-----
2024-05-26 02:00 amNNW 1.0 1.5----1012.9 +0.0 18.1-----
2024-05-26 01:50 amNNW 1.0 1.5----1012.9- 18.2-----
2024-05-26 01:40 am NW 0.5 1.5----1012.9- 18.5-----
2024-05-26 01:30 am- 0.0 1.5----1012.9- 18.7-----
2024-05-26 01:20 amNNW 1.0 1.5----1012.9- 18.8-----
2024-05-26 01:10 am N 1.0 2.1----1012.9- 18.9-----
2024-05-26 01:00 am N 1.0 1.5----1012.9 +0.7 19.1-----
2024-05-26 12:50 am- 0.0 1.5----1012.9- 19.3-----
2024-05-26 12:40 am- 0.0 1.0----1012.9- 19.5-----
2024-05-26 12:30 am NW 0.5 2.6----1012.9- 19.9-----
2024-05-26 12:20 amNNW 1.5 3.6----1013.2- 20.3-----
2024-05-26 12:10 amNNW 2.1 2.6----1013.2- 20.5-----
2024-05-26 12:00 amNNW 0.5 2.1----1013.2 +2.0 20.8-----
2024-05-25 11:50 pm NW 0.5 2.6----1012.9- 21.1-----